Regional Weather Roundup
Issued by NWS Cleveland, OH

Home | Current Version | Previous Version | Graphics & Text | Print | Product List | Glossary On
Versions: 1 2 3 4 5 6 7 8 9 10 11 12 13 14 15 16 17 18 19 20 21 22 23 24 25 26 27 28 29 30 31 32 33 34 35 36 37 38 39 40 41 42 43 44 45 46 47 48 49 50
000
ASUS41 KCLE 141810
RWRCLE
OHIO REGIONAL WEATHER ROUNDUP
NATIONAL WEATHER SERVICE WILMINGTON, OH
100 PM EST THU DEC 14 2017

NOTE: "FAIR" INDICATES FEW OR NO CLOUDS BELOW 12,000 FEET WITH NO
SIGNIFICANT WEATHER AND/OR OBSTRUCTIONS TO VISIBILITY.

OHZ001>008-015>018-024>027-034-035-043-044-141900-
   NORTHWEST OHIO

CITY           SKY/WX    TMP DP  RH WIND       PRES   REMARKS
DEFIANCE       FAIR      19   8  62 CALM      30.05F
FINDLAY        FAIR      19   9  65 NW7       30.02F WCI  10
TOLEDO EXPRESS FAIR      19   7  59 NW6       30.04F WCI  11
TOLEDO EXEC    FAIR      20   3  48 W5        30.04F WCI  13
LIMA           FAIR      20  14  77 CALM      30.02S
$$

OHZ009>014-019>023-028>033-038-089-141900-
   NORTHEAST OHIO

CITY           SKY/WX    TMP DP  RH WIND       PRES   REMARKS
CLE-HOPKINS    PTSUNNY   26  15  63 W10       30.01F WCI  16
CLE-LAKEFRONT  CLOUDY    25  16  68 W9        29.99F WCI  15
CUY CO. ARPT   PTSUNNY   25  18  74 W9        29.99F WCI  15
LORAIN-ELYRIA  FLURRIES  25  15  66 NW13      30.00F WCI  14
ASHTABULA      FLURRIES  22  14  71 W12       29.97S WCI  10
AKRON-CANTON   PTSUNNY   25  12  58 NW8       29.95F WCI  16
WOOSTER        CLOUDY    24  16  71 NW10      29.97F WCI  14
MANSFIELD      FAIR      20  14  77 NW7       29.97F WCI  11
YOUNGSTOWN     FLURRIES  25  15  66 W10       29.95S WCI  15
$$

OHZ042-051>053-060>062-070>072-077>081-141900-
  SOUTHWEST OHIO

CITY           SKY/WX    TMP DP  RH WIND       PRES   REMARKS
CINC-COVINGTON CLOUDY    27  17  66 N6        30.03R WCI  20
CINC-LUNKEN    CLOUDY    28  17  63 N8        30.07S WCI  20
HAMILTON       CLOUDY    25  16  68 N8        30.07S WCI  16
DAYTON         CLOUDY    22  16  78 VRB5      30.04S WCI  16
WRIGHT-PAT AFB CLOUDY    23  15  70 N5        30.04S WCI  17
DAYTON GENERAL CLOUDY    23  15  71 N7        30.02F WCI  15
WILMINGTON     CLOUDY    24  16  71 N7        30.01S WCI  16
$$

OHZ036-037-039>041-045>050-054>059-063>069-073>076-082>088-141900-
  CENTRAL AND SOUTHEAST OHIO

CITY           SKY/WX    TMP DP  RH WIND       PRES   REMARKS
COLUMBUS       CLOUDY    24  16  71 NW9       30.02R WCI  14
OSU AIRPORT    CLOUDY    23  17  78 N5        30.02R WCI  17
BOLTON FIELD   CLOUDY    25  16  68 NW8       30.02S WCI  16
RICKENBACK AFB CLOUDY    27  15  61 N8        30.01F WCI  18
NEWARK         CLOUDY    26  15  63 NW8       29.99S WCI  18
MARION         FAIR      21  14  74 NW7       30.01F WCI  12
LANCASTER      CLOUDY    27  16  63 NW6       30.00F WCI  20
ZANESVILLE     CLOUDY    28  15  58 NW3       29.98R
NEW PHILLY     FAIR      26  14  60 NW8       29.98F WCI  18
$$




USA.gov is the U.S. government's official web portal to all federal, state and local government web resources and services.